Location: Unspecified
(0.0000°N, 0.0000°E)
Time: 23:14:02
(UTC+00:00)

Hubble Space Telescope - Visible Passes

Search period start: 18 April 2019 00:00
Search period end: 28 April 2019 00:00
Orbit: 537 x 540 km, 28.5° (Epoch: 17 April)

Date Brightness Start Highest point End Pass type
(mag) Time Alt. Az. Time Alt. Az. Time Alt. Az.
18 Apr 2.4 04:07:37 28° NNE 04:07:37 28° NNE 04:09:53 10° NE visible
19 Apr 3.2 03:57:55 17° NNE 03:57:55 17° NNE 03:59:09 10° NE visible
20 Apr 3.7 03:48:08 11° NNE 03:48:08 11° NNE 03:48:17 10° NNE visible
